Orbital Elements at Epoch 2459000.5 (2020-May-31.0) TDB
Reference: JPL 7 (heliocentric ecliptic J2000)
Element | Value | Uncertainty (1-sigma) | Units |
e | .3688993984778425 | 1.0086e-06 | |
a | 1.307544438643794 | 2.9334e-09 | au |
q | .8251920817450504 | 1.3197e-06 | au |
i | 1.858085908466132 | 3.0607e-05 | deg |
node | 77.87501275243061 | 0.00082704 | deg |
peri | 316.0968822616981 | 0.00071939 | deg |
M | 276.9814849174298 | 4.1133e-05 | deg |
tp | 2459126.437646774912 (2020-Oct-03.93764678) | 6.2146e-05 | TDB |
period | 546.1137529848083 1.50 | 1.8377e-06 5.031e-09 | d yr |
n | .6592033217116479 | 2.2183e-09 | deg/d |
Q | 1.789896795542539 | 4.0155e-09 | au |
|
| | Orbit Determination Parameters
Additional Information
|